Tracking 19854 objects as of 22-Sep-2019
HD Live streaming from Space Station
objects crossing your sky now

FENGYUN 1C DEB

Track FENGYUN 1C DEB now!
10-day predictions


NORAD ID: 31032
Int'l Code: 1999-025BEA
Perigee: 818.4 km
Apogee: 1,045.5 km
Inclination: 99.3 °
Period: 103.5 minutes
Semi major axis: 7302 km
RCS: 0.0169 m2 (small)
Launch date: May 10, 1999
Source: People's Republic of China (PRC)
Launch site: Taiyaun Space Center, China (TSC)

Note: This is SATELLITE DEBRIS
aabbcc
Your satellite tracking list
Your tracking list is empty




NASA's NSSDC Master Catalog

Two Line Element Set (TLE):
1 31032U 99025BEA 19265.36341257  .00000255  00000-0  21686-3 0  9996
2 31032  99.2718 213.0804 0155476 237.0714 282.2299 13.91096441633371
Source of the keplerian elements: AFSPC